Retour au catalogue

STARLINK-32164

ActifCommunicationsVLEO
NORAD 60271·PAYLOAD·🇺🇸 United States

Lancé Jul 27, 2024 depuis Cape Canaveral Space Force Station

Loading…

Prochains Passages (prochaines 24 heures)

TLE

FraisSource: CelesTrak SupGP

Époque: Sep 14, 2026, 22:31 UTC

1 60271C 24131S   26257.93868056  .00042425  00000+0  12534-2 0  2574
2 60271  53.1569 251.8572 0001313  95.1302 317.2878 15.34370138    17

Suivez STARLINK-32164 en temps réel avec AllMySat

Download on the App Store